Weather Roundup
Issued by NWS Springfield, MO

Home | Current Version | Previous Version | Text Only | Print | Product List | Glossary On
Versions: 1 2 3 4 5 6 7 8 9 10 11 12 13 14 15 16 17 18 19 20 21 22 23 24 25 26 27 28 29 30 31 32 33 34 35 36 37 38 39 40 41 42 43 44 45 46 47 48 49 50
000
NZUS99 KSGF 260557
HRRSGF

HOURLY WEATHER
NATIONAL WEATHER SERVICE SPRINGFIELD MO
100 AM CDT FRI AUG 26 2016

......SGF CWA......

CITY           SKY/WX    TMP DP  RH WIND       PRES   REMARKS
SPRINGFIELD    FAIR      73  67  81 S5        30.09F
6HR MIN TEMP:  72; 6HR MAX TEMP:  87;

JOPLIN         FAIR      71  67  87 SE5       30.08S
6HR MIN TEMP:  69; 6HR MAX TEMP:  75; 6HR PCP:  0.06;

WEST PLAINS    FAIR      78  71  79 W6        30.12F
6HR MIN TEMP:  77; 6HR MAX TEMP:  83;

ROLLA          FAIR      71  69  93 SE3       30.09F
6HR MIN TEMP:  71; 6HR MAX TEMP:  77; 6HR PCP: TRACE;


......SURROUNDING SGF CWA......

CITY           SKY/WX    TMP DP  RH WIND       PRES   REMARKS
CHANUTE        MOCLDY    74  69  85 SE7       30.06F
PARSONS        FAIR      71  68  90 CALM      30.07F
COFFEYVILLE    FAIR      73  67  81 E9        30.05S
EMPORIA        CLOUDY    71  67  87 N8        30.09R
HARRISON AR    FAIR      75  68  78 SE6       30.11F

......KANSAS AND MISSOURI......

CITY           SKY/WX    TMP DP  RH WIND       PRES   REMARKS
KANSAS CTY INT MOCLDY    70  63  78 NE9       30.10F
SEDALIA        FAIR      73  70  90 N9        30.07F
ST JOSEPH      MOCLDY    67  63  87 N6        30.11F FOG
ST LOUIS       MOCLDY    77  69  76 E3        30.08F
WICHITA        CLOUDY    73  67  81 NE8       30.08R
TOPEKA         CLOUDY    69  64  84 N6        30.10R
OLATHE         TSTM      72  70  93 E12       30.09F

......TENNESSEE......

CITY           SKY/WX    TMP DP  RH WIND       PRES   REMARKS
MEMPHIS        NOT AVBL
NASHVILLE      FAIR      78  75  90 CALM      30.12R

......ARKANSAS.......

CITY           SKY/WX    TMP DP  RH WIND       PRES   REMARKS
FAYETTEVILLE   FAIR      69  67  93 CALM      30.10F
FT SMITH       FAIR      75  69  81 E5        30.08S
LITTLE ROCK    CLOUDY    77  72  84 S3        30.08F

......OKLAHOMA.......

CITY           SKY/WX    TMP DP  RH WIND       PRES   REMARKS
TULSA          MOCLDY    76  69  79 W3        30.06R
PONCA CITY     LGT RAIN  74  67  78 S12       30.09R
MCALESTER      FAIR      78  67  68 S8        30.09R
OKLAHOMA CITY  MOCLDY    72  65  78 NE14      30.08S

......IOWA............

CITY           SKY/WX    TMP DP  RH WIND       PRES   REMARKS
DES MOINES     NOT AVBL
QUAD CITIES    FAIR      65  62  90 CALM      30.11R

......ILLINOIS........

CITY           SKY/WX    TMP DP  RH WIND       PRES   REMARKS
QUINCY         MOCLDY    70  70 100 NE10      30.10R
CHICAGO        MOCLDY    67  63  87 W5        30.10R



USA.gov is the U.S. government's official web portal to all federal, state and local government web resources and services.